DELTA 1 DEB

Satellite information

Favourite Embed

Satellite Type and Status

DEBRISIN ORBIT

Key statistics

Satellite DELTA 1 DEB at a glance.

Uptime

17450

Days in orbit

Revolutions

≈ 14.2

Per day

Orbit

SSO

Sun Synchronous Orbit

Inclination

99.0

Latest

Satellite identification and parameters

Extended collection of information and parameters for DELTA 1 DEB.

Object identification

Identified? True

Debris? True

Object name: DELTA 1 DEB

International designator: 1978-026DF

Object number (NORAD): 12262

Object ID (CCSDS): 12262

Country: UNITED STATES OF AMERICA (US)

Current information (Y/N): Y

RCS size: SMALL

Orbital parameters

Period: 101.43 minutes

Inclination: 99.002 deg

SMA: 7204.525 km

Apoapsis: 894.265 km

Periapsis: 758.514 km

RAAN: 125.72 deg

Eccentricy: 0.00942125

Argument of periapsis: 19.374 deg

Mean anomaly: 49.8228 deg

Mean motion: 14.19694026 rev/day

Mean motion (dot): 0.00003525 rev/day2

B* drag term: 0.0016149587 1/REarth

Two-line elements (TLE)

Creation date: Dec. 12, 2025, 10:14 a.m.

Reference frame: TEME

Reference center: EARTH

Epoch: Dec. 12, 2025, 6:28 a.m. UTC

TLE line 0: 0 DELTA 1 DEB

TLE line 1: 1 12262U 78026DF 25346.27011983 .00003525 00000-0 16150-2 0 9997

TLE line 2: 2 12262 99.0020 125.7200 0094213 19.3740 49.8228 14.19694026277916

Live tracking on map

Real-time ground track for satellite DELTA 1 DEB.

In-orbit conjunctions

A list of the most updated potential collisions computed for object DELTA 1 DEB.

Target Orbit TCA Probability of collision Miss distance Type
CZ-6A DEB LEO 2025-11-09 13:46:29 0.0003063952 96.0 (m) DEBRIS
THOR ABLESTAR DEB LEO 2025-10-13 11:32:46 0.0002679445 291.0 (m) DEBRIS
CZ-6A DEB LEO 2025-01-10 22:54:52 0.0006590263 155.0 (m) DEBRIS
SL-8 R/B LEO 2024-11-15 05:41:08 0.0002702712 917.0 (m) ROCKET BODY
THORAD AGENA D DEB SSO 2024-11-14 17:51:28 0.000344517 547.0 (m) DEBRIS

Associated space launch

Earth observation satellite

DELTA 1 DEB was lifted into orbit during the mission ‘Delta 2910 | Landsat 3’, on board a Delta 2910 space rocket.

The launch took place on March 5, 1978, 5:54 p.m. from Space Launch Complex 2W.

For more information about the launch, click the button.

Launch to space Delta 2910 | Landsat 3
Delta 2910 | Landsat 3

Agency: N/A

Status: Launch Successful

Launch date: March 5, 1978, 5:54 p.m. UTC

Rocket: Delta 2910

Launch pad: Space Launch Complex 2W

Location: Vandenberg SFB, CA, USA

...

Latest news about this satellite

There are no fresh news available about this satellite. Check back as we update our databases every day.


Newsletter sign-up

Weekly statistics, charts and insights to help you stay on top of the space industry.